www.pogodaiklimat.ru

Погода и климат >> Архив погоды >> Ирак >> Эр-Рутба


ПОГОДА в Эр-Рутбе

  • Прогноз погоды в Эр-Рутбе
  • Монитор погоды в Эр-Рутбе

АРХИВ ПОГОДЫ в Эр-Рутбе

Время (UTC), дата Ветер
(напр.,м/с)
 
Видим.   Явления Облачность Т
(С)
Тd
(С)
f
(%)
Тe
(С)
Тes
(С)
Комфортность P
(гПа)
Po
(гПа)
Тmin
(С)
Tmax
(С)
R
(мм)
R24
(мм)
S
(см)
06 15.04 ЮВ 2 10 км 4/4 1050 м
[Cu hum]
+20.8 +5.2 36 +22 +28 комфорт 1014.5 944.5 +11.0
09 15.04 СВ 2 10 км 4/4 1050 м
[Cu hum]
+23.7 +7.3 35 +24 +35 комфорт 1013.8 944.5
12 15.04 СВ 2 10 км 5/5 750 м
[Cu med, cong]
+26.0 +7.0 30 +26 +32 жарко 1013.3 944.6
15 15.04 СВ 2 10 км 8/8 750 м
[Cu Sc]
+25.5 +6.5 30 +25 +25 комфорт 1013.4 944.5
06 16.04 СВ 2 8000 м слаб. дождь 8/8 600 м
[Cu Sc]
+17.2 +4.5 43 +18 +19 1015.6 944.7 +13.5
09 16.04 В 2 10 км 5/5 750 м
[Cu med, cong]
+24.0 +4.8 29 +24 +33 комфорт 1012.0 942.9
12 16.04 В 3 8000 м слаб. дождь 8/8 750 м
[Cu Sc]
+27.0 +5.0 24 +26 +28 жарко 1008.8 940.6
15 16.04 З 2 8000 м гроза, ливневой дождь 9/9 750 м
[Cb cap]
+22.0 +5.2 33 +22 +22 комфорт 1007.8 938.5
06 17.04 ЮВ 2 10 км ясно +15.8 +5.3 50 +16 +25 1013.6 942.5 +8.2
09 17.04 ЮВ 3 10 км 6/6 750 м
[Cu Sc]
+20.0 +4.5 36 +21 +27 комфорт 1012.5 942.4
12 17.04 ЮВ 3 10 км 5/5 750 м
[Cu med, cong]
+22.0 +6.1 36 +23 +28 комфорт 1012.0 942.4
15 17.04 Ю 2 10 км 6/6 750 м
[Cu Sc]
+22.0 +6.1 36 +23 +23 комфорт 1012.3 942.7
12 18.04 З 2 10 км 8/8 750 м
[Cu Sc]
+19.7 +4.4 36 +21 +23 комфорт 1013.6 943.4
15 18.04 В 2 8000 м слаб. дождь 8/8 900 м
[Cu Sc]
+20.0 +4.0 35 +21 +21 комфорт 1012.6 942.5
06 19.04 ЮВ 2 10 км 3/3 750 м
[Cu hum]
+13.0 +4.4 56 +12 +19 1015.3 943.4 +8.5
09 19.04 ЮЗ 3 10 км 5/5 750 м
[Cu med, cong]
+17.2 +4.5 43 +17 +25 1014.2 943.4
12 19.04 ЮЗ 2 10 км 6/6 750 м
[Cu Sc]
+19.2 +6.6 44 +20 +25 1013.5 943.2
15 19.04 ЮЗ 2 10 км 6/6 750 м
[Cu Sc]
+18.6 +6.2 44 +19 +20 1012.7 942.3
06 20.04 ЮВ 2 10 км ясно +11.8 +6.8 71 +11 +20 1015.6 943.4 +7.2
09 20.04 ЮЗ 3 10 км 5/5 750 м
[Cu med, cong]
+17.2 +4.5 43 +17 +25 1014.2 943.4
12 20.04 Ю 2 10 км 6/6 750 м
[Cu Sc]
+19.8 +4.5 36 +21 +26 комфорт 1013.5 943.3
15 20.04 Ю 2 10 км 6/6 750 м
[Cu Sc]
+19.6 +4.3 36 +21 +21 комфорт 1013.7 943.5
06 21.04 В 2 10 км 5/5 750 м
[Cu med, cong]
+12.4 +4.7 59 +12 +16 1014.5 942.5 +7.5
09 21.04 Ю 3 10 км 6/6 750 м
[Cu Sc]
+16.8 +4.1 43 +17 +23 1012.3 941.5
12 21.04 Ю 4 8000 м слаб. дождь 8/8 750 м
[Cu Sc]
+17.6 +6.3 47 +17 +19 1010.0 939.6
15 21.04 ЮВ 2 8000 м слаб. дождь 8/8 750 м
[Cu Sc]
+10.8 +4.8 66 +10 +10 1010.7 938.6

 

Местоположение метеостанции Эр-Рутба (Ирак): широта 33.03 долгота 40.28 высота над уровнем моря 615 м.

В архиве по умолчанию представлена погода в Эр-Рутбе за последнюю неделю. Архивные данные за месяц целиком и за предыдущие месяцы, начиная с января 2011 года, Вы можете получить, выбрав интересующий диапазон дат из раскрывающегося списка и нажав кнопку "Ввод!".


*Определитесь, кто Вы:
робот инопланетянин человек

Внимание! Время в таблицах - всемирное. Для получения местного времени необходимо прибавить поправку, которая равна 3 ч.

Смотрите также архив погоды в соседних городах и на ближайших метеорологических станциях:

Погода в Аль-Каиме (Ирак) (165 км)
Погода в Абу-Камале (Сирия) (166 км)
Погода в Руваишеде (Иордания) (203 км)
Погода в Тураифе (Саудовская Аравия) (209 км)
Погода в Аль-Нухибе (Ирак) (216 км)
Погода в Ане (Ирак) (222 км)
Погода в Хадите (Ирак) (226 км)
Погода в Пальмире (Сирия) (249 км)
Погода в Араре (Саудовская Аравия) (250 км)
Погода в Дайр-эз-Зауре (Сирия) (255 км)

Пояснения к столбцам:

Ветер - указаны скорость ветра в м/с - средняя за 10 мин, порывы в срок и между сроками (в фигурных скобках) и направление, откуда дует ветер: С - северный, СВ - северо-восточный, В - восточный, ЮВ - юго-восточный, Ю - южный, ЮЗ - юго-западный, З - западный, СЗ - северо-западный.
Видимость - горизонтальная дальность видимости в метрах или километрах. При видимости от 1 до 10 км при отсутствии осадков обычно наблюдается дымка, при ухудшении видимости до 1 км и менее - туман. В сухую погоду видимость может ухудшаться дымом, пылью или мглою.
Явления - указаны атмосферные явления, наблюдавшиеся в срок или в последний час перед сроком; фигурными скобками обозначены явления, наблюдавшиеся между сроками (за 1-3 часа до срока); квадратными скобками обозначены град или гололедные отложения с указанием их диаметра в мм.
Облачность - указаны через наклонную черту общая и нижняя облачность в баллах и высота нижней границы облаков в метрах; квадратными скобками обозначены формы облаков: Ci - перистые, Cs - перисто-слоистые, Cc - перисто-кучевые, Ac - высококучевые, As - высокослоистые, Sc - слоисто-кучевые, Ns - слоисто-дождевые, Cu - кучевые, Cb - кучево-дождевые. Подробнее классификацию облаков см. в Атласе облаков (PDF).
T - Температура воздуха - температура, измеренная на высоте 2 м над землей.
Td - Температура точки росы - температура, при понижении до которой содержащийся в воздухе водяной пар достигнет насыщения.
f - Относительная влажность воздуха - влажноcть воздуха, измеренная на высоте 2 м над землей.
Te - Эффективная температура - температура, которую ощущает одетый по сезону человек в тени. Характеристика душности погоды. При расчете учитывается влияние влажности воздуха и скорости ветра на теплоощущения человека.
Tes - Эффективная температура на солнце - температура, которую ощущает человек, с поправкой на солнечный нагрев. Характеристика знойности погоды. Зависит от высоты солнца над горизонтом, облачности и скорости ветра. Ночью, в пасмурную погоду, а также при ветре 12 м/с и более поправка равна нулю.
P - Атмосферное давление - приведенное к уровню моря атмосферное давление.
Po - Атмосферное давление - измеренное на уровне метеостанции атмосферное давление.
Tmin - Минимальная температура - минимум температуры воздуха на высоте 2 м над землей.
Tmax - Максимальная температура - максимум температуры воздуха на высоте 2 м над землей.
R - Количество осадков - Количество выпавших осадков за период времени, мм. При наведении курсора мыши на число - период времени, за который выпало указанное количество осадков.
R24 - Количество осадков - Количество выпавших осадков за 24 часа, мм.
S - Снежный покров - Высота снежного покрова, см. При наведении курсора мыши на число - состояние снежного покрова и степень покрытия местности в баллах.